CYGNUS NG-13 (45175 NORAD) Tracking and Keplerian Element Data

This shows tracking and keplerian element data for the satellite.

Feedback or suggestion? Click here.




ElementValue
Catalog45175
NameCYGNUS NG-13
Epoch Orbit704
Epoch Day92.28342145
Epoch Year2020
RAAN9.0011
Inclination51.646
Eccentricity0.0005126
Argument of Perigee78.1559
Mean Anonmoly64.4253
Mean Motion15.48937069
Decay Rate7.49E-06
L11 45175U 20011A 20092.28342145 .00000749 00000-0 21831-4 0 9997
L22 45175 51.6460 9.0011 0005126 78.1559 64.4253 15.48937069 7043

Live tracking and technical data element details for CYGNUS NG-13 (NORAD 45175). CYGNUS NG-13 can be tracked NOW for your location showing map with azimuth and elevation plus other details from your city location.

Track the satellite on the map from your city or location and see movement details for azimuth, elevation, latitude, longitude, range, height, and movement on the map or in text.







IsCatalogInMostPopularTable: catalog: 45175, numindb: 13
Update: records affected: 1



GetName: 45175 CYGNUS NG-13

Hit Count: updated at: Tue, 07 Apr 2020 15:43:54 GMT